TimeEST,TemperatureF,Dew PointF,Humidity,Sea Level PressureIn,VisibilityMPH,Wind Direction,Wind SpeedMPH,Gust SpeedMPH,PrecipitationIn,Events,Conditions,WindDirDegrees,DateUTC
12:15 AM,39.2,35.6,87,30.04,10.0,WSW,10.4,-,N/A,,Overcast,250,2012-12-05 05:15:00
12:35 AM,39.2,35.6,87,30.04,10.0,West,10.4,-,N/A,,Mostly Cloudy,260,2012-12-05 05:35:00
12:55 AM,39.2,35.6,87,30.05,10.0,West,13.8,-,N/A,,Mostly Cloudy,260,2012-12-05 05:55:00
1:15 AM,39.2,35.6,87,30.05,10.0,West,11.5,21.9,N/A,,Mostly Cloudy,260,2012-12-05 06:15:00
1:35 AM,39.2,35.6,87,30.05,10.0,WSW,11.5,16.1,N/A,,Partly Cloudy,250,2012-12-05 06:35:00
1:55 AM,39.2,35.6,87,30.06,10.0,West,6.9,-,N/A,,Clear,270,2012-12-05 06:55:00
2:15 AM,37.4,33.8,87,30.06,10.0,WNW,3.5,-,N/A,,Clear,290,2012-12-05 07:15:00
2:55 AM,37.4,33.8,87,30.07,10.0,West,4.6,-,N/A,,Clear,260,2012-12-05 07:55:00
3:15 AM,37.4,33.8,87,30.07,10.0,West,4.6,-,N/A,,Clear,270,2012-12-05 08:15:00
3:35 AM,37.4,32.0,81,30.07,10.0,West,4.6,-,N/A,,Mostly Cloudy,280,2012-12-05 08:35:00
3:55 AM,37.4,32.0,81,30.08,10.0,NW,6.9,-,N/A,,Mostly Cloudy,310,2012-12-05 08:55:00
4:15 AM,37.4,30.2,75,30.08,10.0,West,5.8,-,N/A,,Overcast,280,2012-12-05 09:15:00
4:35 AM,37.4,32.0,81,30.08,10.0,West,4.6,-,N/A,,Overcast,280,2012-12-05 09:35:00
4:55 AM,37.4,32.0,81,30.08,10.0,WNW,5.8,-,N/A,,Overcast,300,2012-12-05 09:55:00
5:15 AM,37.4,32.0,81,30.09,10.0,West,10.4,17.3,N/A,,Overcast,280,2012-12-05 10:15:00
5:35 AM,37.4,32.0,81,30.09,10.0,WNW,6.9,-,N/A,,Overcast,300,2012-12-05 10:35:00
5:55 AM,37.4,30.2,75,30.10,10.0,WNW,9.2,-,N/A,,Overcast,290,2012-12-05 10:55:00
6:15 AM,37.4,32.0,81,30.11,10.0,WNW,8.1,17.3,N/A,,Overcast,300,2012-12-05 11:15:00
6:35 AM,35.6,30.2,81,30.12,10.0,NW,10.4,18.4,N/A,,Overcast,310,2012-12-05 11:35:00
6:55 AM,35.6,30.2,81,30.13,10.0,WNW,11.5,-,N/A,,Overcast,300,2012-12-05 11:55:00
7:15 AM,35.6,30.2,81,30.14,10.0,NW,15.0,-,N/A,,Overcast,310,2012-12-05 12:15:00
7:35 AM,35.6,28.4,75,30.14,10.0,NNW,11.5,-,N/A,,Overcast,330,2012-12-05 12:35:00
7:55 AM,33.8,28.4,81,30.15,10.0,NW,12.7,-,N/A,,Overcast,310,2012-12-05 12:55:00
9:35 AM,32.0,24.8,75,30.18,10.0,NW,15.0,21.9,N/A,,Overcast,310,2012-12-05 14:35:00
9:55 AM,32.0,24.8,75,30.19,10.0,NW,13.8,19.6,N/A,,Overcast,320,2012-12-05 14:55:00
10:15 AM,30.2,21.2,69,30.20,10.0,NNW,15.0,24.2,N/A,,Overcast,330,2012-12-05 15:15:00
10:35 AM,30.2,21.2,69,30.21,10.0,NNW,11.5,23.0,N/A,,Overcast,330,2012-12-05 15:35:00
10:55 AM,30.2,21.2,69,30.22,10.0,WNW,17.3,23.0,N/A,,Overcast,300,2012-12-05 15:55:00
11:15 AM,30.2,21.2,69,30.22,10.0,NW,13.8,20.7,N/A,,Overcast,310,2012-12-05 16:15:00
11:35 AM,30.2,21.2,69,30.22,10.0,NNW,13.8,21.9,N/A,,Overcast,330,2012-12-05 16:35:00
11:55 AM,30.2,19.4,64,30.22,10.0,NNW,13.8,-,N/A,,Overcast,330,2012-12-05 16:55:00
12:15 PM,30.2,19.4,64,30.23,10.0,NW,12.7,21.9,N/A,,Overcast,320,2012-12-05 17:15:00
12:35 PM,30.2,19.4,64,30.23,10.0,WNW,17.3,23.0,N/A,,Overcast,300,2012-12-05 17:35:00
12:55 PM,30.2,19.4,64,30.22,10.0,WNW,12.7,18.4,N/A,,Overcast,300,2012-12-05 17:55:00
1:15 PM,30.2,21.2,69,30.23,10.0,NNW,11.5,19.6,N/A,,Overcast,330,2012-12-05 18:15:00
1:35 PM,30.2,21.2,69,30.23,10.0,NW,13.8,19.6,N/A,,Overcast,320,2012-12-05 18:35:00
1:55 PM,30.2,21.2,69,30.23,10.0,NW,16.1,25.3,N/A,,Overcast,320,2012-12-05 18:55:00
2:15 PM,30.2,21.2,69,30.24,10.0,NW,11.5,19.6,N/A,,Overcast,320,2012-12-05 19:15:00
2:35 PM,30.2,19.4,64,30.24,10.0,NW,15.0,23.0,N/A,,Overcast,310,2012-12-05 19:35:00
2:55 PM,30.2,17.6,60,30.24,10.0,NNW,15.0,23.0,N/A,,Overcast,340,2012-12-05 19:55:00
3:15 PM,30.2,19.4,64,30.24,10.0,NNW,15.0,-,N/A,,Overcast,330,2012-12-05 20:15:00
3:35 PM,30.2,19.4,64,30.25,10.0,NNW,15.0,21.9,N/A,,Overcast,330,2012-12-05 20:35:00
3:55 PM,30.2,17.6,60,30.26,10.0,NNW,10.4,-,N/A,,Overcast,330,2012-12-05 20:55:00
4:15 PM,30.2,17.6,60,30.27,10.0,NNW,10.4,-,N/A,,Overcast,330,2012-12-05 21:15:00
4:35 PM,28.4,17.6,64,30.28,10.0,NNW,16.1,19.6,N/A,,Overcast,330,2012-12-05 21:35:00
4:55 PM,28.4,17.6,64,30.28,10.0,NNW,9.2,-,N/A,,Overcast,340,2012-12-05 21:55:00
5:15 PM,28.4,17.6,64,30.29,10.0,NNW,8.1,-,N/A,,Overcast,330,2012-12-05 22:15:00
5:35 PM,28.4,17.6,64,30.30,10.0,NNW,11.5,-,N/A,,Overcast,340,2012-12-05 22:35:00
5:55 PM,28.4,17.6,64,30.30,10.0,NNW,11.5,18.4,N/A,,Overcast,340,2012-12-05 22:55:00
6:15 PM,28.4,17.6,64,30.31,10.0,NNW,6.9,-,N/A,,Overcast,340,2012-12-05 23:15:00
6:35 PM,28.4,17.6,64,30.31,10.0,NNW,8.1,-,N/A,,Overcast,330,2012-12-05 23:35:00
6:55 PM,28.4,17.6,64,30.31,10.0,NNW,8.1,-,N/A,,Overcast,340,2012-12-05 23:55:00
7:15 PM,28.4,15.8,59,30.31,10.0,NNW,6.9,-,N/A,,Overcast,330,2012-12-06 00:15:00
7:35 PM,28.4,17.6,64,30.31,10.0,NNW,4.6,-,N/A,,Overcast,330,2012-12-06 00:35:00
7:55 PM,28.4,17.6,64,30.30,10.0,North,5.8,-,N/A,,Overcast,360,2012-12-06 00:55:00
8:15 PM,28.4,17.6,64,30.30,10.0,North,8.1,-,N/A,,Overcast,10,2012-12-06 01:15:00
8:35 PM,26.6,15.8,64,30.29,10.0,North,10.4,-,N/A,,Overcast,360,2012-12-06 01:35:00
8:55 PM,26.6,15.8,64,30.29,10.0,North,6.9,-,N/A,,Overcast,350,2012-12-06 01:55:00
9:15 PM,26.6,15.8,64,30.29,10.0,North,6.9,-,N/A,,Mostly Cloudy,360,2012-12-06 02:15:00
9:35 PM,26.6,15.8,64,30.29,10.0,NNE,4.6,-,N/A,,Mostly Cloudy,20,2012-12-06 02:35:00
9:55 PM,26.6,17.6,69,30.29,10.0,North,3.5,-,N/A,,Overcast,10,2012-12-06 02:55:00
10:15 PM,26.6,17.6,69,30.30,10.0,North,4.6,-,N/A,,Overcast,10,2012-12-06 03:15:00
10:35 PM,26.6,17.6,69,30.30,10.0,North,4.6,-,N/A,,Overcast,10,2012-12-06 03:35:00
10:55 PM,26.6,17.6,69,30.30,10.0,NW,4.6,-,N/A,,Overcast,320,2012-12-06 03:55:00
11:15 PM,26.6,17.6,69,30.31,10.0,NNW,5.8,-,N/A,,Overcast,340,2012-12-06 04:15:00
11:35 PM,26.6,17.6,69,30.31,10.0,WNW,4.6,-,N/A,,Overcast,300,2012-12-06 04:35:00
11:55 PM,26.6,17.6,69,30.32,10.0,WNW,4.6,-,N/A,,Overcast,290,2012-12-06 04:55:00